Location: Lynch Observatory
(39.9540°N, 75.1861°W)
Time: 19:23:16
(UTC-04:00)

QB50P2 - Visible Passes

Search period start: 23 April 2024 00:00
Search period end: 03 May 2024 00:00
Orbit: 568 x 581 km, 98.0° (Epoch: 23 April)

Date Brightness Start Highest point End Pass type
(mag) Time Alt. Az. Time Alt. Az. Time Alt. Az.
23 Apr ? 03:15:32 10° NNE 03:18:43 41° ENE 03:18:43 41° ENE visible
23 Apr ? 04:52:09 10° NNW 04:54:17 14° WNW 04:54:57 13° WNW visible
24 Apr ? 03:18:47 10° NNE 03:22:09 46° ENE 03:22:09 46° ENE visible
24 Apr ? 04:55:39 10° NW 04:57:32 13° WNW 04:58:22 12° WNW visible
25 Apr ? 03:22:01 10° NNE 03:25:32 52° ENE 03:25:32 52° ENE visible
25 Apr ? 04:59:11 10° NW 05:00:45 12° WNW 05:01:46 11° WNW visible
26 Apr ? 03:25:14 10° NNE 03:28:54 59° ENE 03:28:54 59° ENE visible
26 Apr ? 05:02:47 10° NW 05:03:56 11° WNW 05:05:07 10° W visible
27 Apr ? 03:28:25 10° NNE 03:32:14 66° ENE 03:32:14 66° ENE visible
27 Apr ? 05:06:36 10° NW 05:07:06 10° WNW 05:07:36 10° WNW visible
28 Apr ? 03:31:34 10° NNE 03:35:33 73° ENE 03:35:33 73° ENE visible
29 Apr ? 03:34:43 10° NNE 03:38:49 81° E 03:38:49 81° E visible
30 Apr ? 03:37:49 10° NNE 03:41:58 88° ESE 03:42:04 85° S visible
01 May ? 03:40:55 10° NNE 03:45:04 85° W 03:45:17 79° SW visible
02 May ? 03:43:59 10° N 03:48:07 79° WNW 03:48:28 71° SW visible
